Tracking 23726 objects as of 24-Sep-2021
HD Live streaming from Space Station
objects crossing your sky now

ONEWEB-0329

Track ONEWEB-0329 now!
10-day predictions
ONEWEB-0329 is classified as:


NORAD ID: 49107
Int'l Code: 2021-075AJ
Perigee: 548.8 km
Apogee: 578.2 km
Inclination: 87.4 °
Period: 95.8 minutes
Semi major axis: 6934 km
RCS: Unknown
Launch date: August 21, 2021
Source: United Kingdom (UK)
Launch site: TYURATAM MISSILE AND SPACE COMPLEX (TTMTR)
aabbcc
Your satellite tracking list
Your tracking list is empty




NASA's NSSDC Master Catalog

Two Line Element Set (TLE):
1 49107U 21075AJ  21267.16667824 -.00889449  00000-0 -70176-1 0  9990
2 49107  87.4230 354.7667 0021220 178.8886  31.9880 15.03430859  6359
Source of the keplerian elements: AFSPC